Vertical_Velocity
-2 2 3 0 1 0 -4 -1 -1 2 4 2 3 -2 -1 -1 11 20 1 4 -2 0 23 -4 10 3 -8 -17 -9 46 4 -9 -8 0 1 -16 -14 -1 -10 12 2 -1 2 5 8 2 -33 5 4 -16 20 8 -1 1
2 3 -2 -2 -2 -0 -0 -1 -2 -3 0 10 8 2 2 -3 2 37 -8 7 17 20 6 -4 9 1 -2 7 10 -17 16 22 -2 10 -4 6 -2 -4 11 -13 1 -22 -2 5 8 -3 -6 12 1 3 -2 -2 -3 -3
0 -0 -0 -0 -2 -1 -2 -0 -1 -0 -3 3 -0 3 1 5 1 9 -3 18 18 19 6 1 3 6 4 9 1 -8 1 2 -6 11 5 8 -11 -5 -5 1 6 5 13 -1 -6 7 11 -0 -2 -10 3 -1 -2 -1
-2 -3 -1 -0 -3 -2 -1 -0 11 2 -0 2 5 3 2 8 2 7 1 15 12 2 -4 4 3 -6 2 -2 -8 1 2 -23 19 8 45 28 1 -4 0 8 -3 4 -3 6 5 8 1 2 2 9 -5 -6 1 -1
-2 -0 -1 -1 1 -2 -1 -2 -5 -2 -0 1 2 0 -2 5 1 3 16 2 14 15 -6 2 1 -0 1 -0 -5 -5 2 -4 7 12 -32 -27 1 2 -9 -6 -6 -2 6 -4 9 17 -9 2 6 6 3 4 -4 -1
1 1 -2 -3 3 -4 -1 -1 -0 1 1 5 7 3 2 0 -10 -5 -0 8 14 -1 3 -9 0 -3 -1 -5 -7 3 5 -4 5 27 2 4 15 -12 -21 -3 5 1 -1 3 4 -5 -4 5 -3 -2 -2 -2 1 -1
6 -2 -2 1 -1 2 -0 -4 -5 -3 -5 -2 4 7 7 9 10 1 -6 -9 -9 4 -1 1 2 0 -2 -7 -2 -2 -2 -4 1 13 4 -2 -2 -9 -4 -9 15 7 1 -4 -8 3 4 -18 0 2 -5 -0 0 0
6 1 -0 3 -1 1 3 4 3 9 13 6 7 3 -1 -7 3 2 9 10 10 -2 -2 -2 -3 -3 0 0 2 5 2 3 3 1 1 -3 12 -10 -22 15 4 6 -1 -1 1 -0 -3 1 -7 0 -2 -3 1 2
5 1 3 -1 0 1 4 0 0 -9 -4 -3 -1 4 4 10 4 1 3 -6 -4 -11 -6 3 3 -1 -2 -1 2 -1 -4 3 36 -7 6 15 5 -18 10 17 9 -2 -6 -5 -3 3 -2 -5 1 -3 -0 3 5 1
3 3 -2 1 -0 1 4 3 2 1 3 4 7 13 5 9 7 5 5 -4 -5 1 2 2 2 3 5 -1 4 15 -2 14 24 13 11 -3 3 11 -6 -9 -4 -3 1 5 -2 -4 -1 -3 0 -1 2 2 1 2
2 1 4 4 3 4 7 5 6 3 -6 -7 -8 -1 -6 0 -4 -2 -1 0 2 2 3 5 -2 -2 7 1 9 -9 6 4 22 5 2 0 3 -15 3 -1 3 -0 3 2 2 1 -0 -0 -0 1 -1 -1 -0 0
1 1 2 1 2 0 1 -1 -0 9 14 14 14 4 -0 -1 1 -1 3 3 7 5 3 -4 -4 4 9 16 14 -2 29 0 -7 3 -4 -8 1 0 -1 3 1 -0 2 4 0 -5 -2 -0 2 -1 -1 1 2 -1
-1 1 0 0 -0 -0 -0 -1 -0 1 -2 -2 -1 1 -2 4 1 5 8 4 8 6 -1 4 2 2 25 5 -4 6 -13 -10 12 2 -8 -6 1 0 1 -2 -3 2 1 3 2 1 2 0 -1 1 2 0 -2 -1
1 1 0 0 1 2 2 3 2 1 -0 -1 -0 0 -5 -2 -2 1 4 -3 -0 1 -0 -1 0 -0 18 11 -7 18 -4 27 -4 -1 1 8 2 -5 -3 -2 -5 -2 -1 1 -0 -2 -0 0 1 1 -0 2 4 6
3 2 2 1 3 5 3 -0 0 -0 -0 -1 -3 -3 -3 0 -1 2 1 0 -4 10 11 8 0 -9 -1 4 8 2 -5 -6 -1 8 7 2 1 -2 -2 -1 -2 -2 1 2 2 1 0 0 3 2 2 2 2 3
-0 -1 -6 -2 -2 -5 -3 2 -1 0 1 3 4 1 1 1 1 5 -5 -6 -2 -3 -2 2 1 9 1 -6 5 6 5 7 5 4 3 4 2 1 1 2 3 2 2 1 -1 -0 3 4 4 4 6 7 3 1
-1 -0 3 3 5 -1 -9 -7 -4 -0 2 1 -0 0 0 2 -3 -5 -9 -4 -0 -1 -1 3 4 -1 3 0 -1 3 3 0 4 0 2 5 6 1 0 3 4 6 5 5 6 8 7 8 5 3 0 -1 0 0
2 2 1 0 2 2 2 4 6 5 -0 -5 -6 3 1 -3 -1 -4 -4 -1 -0 3 4 -0 4 1 4 2 2 -3 -2 3 1 -5 3 11 7 2 1 2 4 3 2 2 2 1 0 1 1 0 -0 -0 0 -1
2 0 -0 1 2 2 -0 2 1 -0 1 5 3 3 4 8 7 -5 -2 2 6 5 1 1 2 2 2 1 -0 3 3 1 -1 -1 1 4 9 5 2 3 3 2 1 0 -1 0 2 1 -1 0 0 0 -0 0
-2 -0 -1 -3 -0 -2 -6 -3 0 -0 -3 2 4 3 7 7 4 1 3 -1 -3 -0 -1 -2 -5 -3 -3 0 -1 0 1 0 2 1 4 4 4 2 1 1 1 1 1 2 1 1 1 1 1 1 1 0 0 1
0 3 5 6 3 4 4 6 6 -0 -4 -13 -10 -9 -5 -1 -3 -3 0 4 1 -2 -5 -2 4 13 10 8 1 6 6 5 6 4 4 7 7 5 3 3 3 2 2 2 1 -0 0 0 -1 -1 -1 -0 -0 -1
-0 2 1 1 1 3 2 3 5 5 6 8 7 4 -0 -5 -8 -8 -8 -11 -10 -9 -7 -7 -7 -1 2 0 3 2 2 2 3 4 3 2 2 1 0 1 1 1 0 -0 0 0 0 1 2 1 -0 -2 0 -0
0 1 0 1 2 0 -3 1 0 -0 2 2 3 4 4 5 5 5 7 5 4 4 3 3 1 1 1 3 3 2 2 2 2 2 2 3 3 3 3 2 1 1 1 1 2 1 1 1 0 1 0 0 -0 -3
4 -0 0 0 0 -1 1 1 0 -1 -1 -0 -1 -1 -0 1 2 2 2 2 2 1 2 3 4 4 4 3 2 2 3 4 4 4 3 3 2 1 2 2 2 1 1 1 1 1 1 0 -0 -0 -1 -2 -2 -1
1 -1 -2 -1 -1 -1 -1 -1 -2 -1 -2 -1 -1 -2 -3 -1 -1 -1 -0 1 2 2 2 3 3 3 3 3 2 2 2 2 2 3 3 3 3 2 2 2 2 2 2 1 1 0 0 0 -1 -1 -1 -1 -2 -3
-2 -3 -3 -2 -2 -3 -2 -2 -3 -3 -3 -3 -3 -2 -2 -1 -1 -1 -1 -2 -2 -1 -1 0 0 0 1 1 1 2 3 3 4 4 3 3 3 3 2 2 2 1 1 1 1 0 -0 -1 -1 -1 -2 -2 -3 -2
-2 -2 -2 -2 -3 -2 -5 -5 -4 -4 -4 -6 -5 -6 -5 -5 -5 -4 -4 -3 -3 -2 -2 -1 0 1 1 2 2 2 2 2 2 2 2 2 2 2 2 2 2 1 1 0 -0 -1 -2 -2 -2 -2 -2 -2 -4 -4
-5 -5 -4 -3 -5 -4 -5 -5 -5 -5 -5 -4 -3 -3 -3 -1 -5 -3 -2 -2 -1 -1 -0 -0 -0 0 1 1 1 2 2 2 2 2 3 3 3 3 2 1 0 0 -0 -1 -2 -2 -1 -1 -1 -3 -4 -4 -3 -1
-5 -6 -5 -5 -3 -4 -3 -3 -2 -2 -2 -3 -3 -3 -3 -3 -2 -2 -2 -0 0 1 1 2 3 3 3 3 3 3 4 4 3 3 4 3 2 1 0 -1 -2 -1 -1 -1 -1 -1 -2 -3 -3 -2 -1 -1 -2 -3
-4 -3 -3 -3 -2 -3 -4 -5 -6 -5 -5 -4 -4 -7 -6 -5 -3 -2 -1 -0 -1 -0 -0 -0 1 2 3 3 3 3 3 3 2 2 2 1 0 -0 -1 -1 -1 -1 -1 -2 -3 -3 -3 -2 -1 -1 -1 -1 -3 -2
-2 -3 -3 -2 -2 -4 -4 -5 -4 -5 -5 -4 -3 -1 -0 -0 -0 -1 -1 0 -0 -0 0 1 1 1 1 1 1 1 1 1 0 -0 -0 -0 -1 -1 -1 -1 -2 -3 -3 -3 -2 -1 -1 -1 -1 -2 -2 -2 -1 -0
-1 -2 -1 -1 -3 -4 -3 -4 -3 -3 -3 -2 -2 -1 -2 -3 -3 -2 -1 -0 0 1 1 2 2 2 2 2 1 1 1 1 0 -0 -1 -1 -2 -2 -2 -2 -1 -1 -1 -1 -1 0 -0 -2 -1 -0 -0 -1 -1 -2
-0 -1 -2 -3 -3 -3 -3 -4 -4 -3 -3 -3 -2 -3 -3 -3 -2 -1 -1 -0 0 1 1 1 1 1 0 0 0 -0 -1 -1 -1 -1 -1 -1 -1 -0 -0 -0 -1 -1 -0 0 0 -0 -0 -0 -0 -0 -1 -1 -1 -2
Height
5309 5305 5301 5296 5292 5287 5284 5281 5281 5284 5291 5303 5315 5327 5338 5350 5367 5378 5393 5413 5426 5437 5451 5458 5466 5474 5482 5492 5502 5512 5514 5517 5530 5538 5548 5560 5566 5572 5577 5588 5595 5600 5606 5611 5618 5620 5624 5632 5638 5640 5650 5652 5651 5651
5299 5293 5286 5278 5270 5263 5259 5258 5260 5264 5270 5284 5298 5311 5323 5335 5350 5368 5383 5401 5418 5431 5442 5448 5460 5468 5478 5487 5495 5502 5513 5514 5524 5533 5544 5552 5558 5565 5570 5580 5587 5591 5597 5602 5610 5614 5618 5625 5628 5632 5635 5637 5640 5641
5291 5282 5272 5263 5255 5245 5235 5234 5241 5253 5262 5274 5288 5303 5312 5322 5338 5360 5378 5398 5410 5422 5432 5442 5455 5464 5471 5481 5489 5495 5503 5511 5517 5530 5539 5545 5548 5558 5566 5575 5581 5584 5588 5595 5600 5607 5611 5616 5618 5621 5627 5630 5632 5632
5284 5274 5265 5258 5244 5224 5208 5209 5227 5245 5258 5272 5286 5299 5310 5321 5337 5356 5374 5392 5404 5418 5427 5441 5449 5457 5465 5473 5479 5487 5495 5499 5511 5522 5532 5534 5544 5554 5560 5566 5572 5579 5584 5591 5594 5600 5603 5606 5610 5615 5616 5619 5623 5625
5283 5272 5264 5257 5245 5227 5214 5217 5230 5246 5260 5274 5288 5302 5314 5325 5341 5359 5376 5392 5407 5419 5427 5438 5445 5452 5458 5466 5473 5480 5487 5492 5500 5511 5518 5528 5537 5545 5551 5558 5566 5573 5579 5583 5588 5594 5594 5599 5601 5607 5610 5613 5613 5614
5285 5275 5268 5262 5256 5247 5239 5239 5245 5256 5269 5282 5294 5306 5318 5330 5345 5360 5374 5388 5402 5414 5425 5433 5441 5447 5454 5462 5469 5475 5479 5484 5492 5504 5517 5523 5531 5538 5544 5552 5560 5567 5573 5577 5579 5583 5586 5592 5594 5597 5600 5602 5604 5604
5289 5281 5274 5270 5268 5265 5263 5263 5267 5274 5283 5293 5303 5313 5325 5338 5354 5370 5385 5397 5404 5415 5424 5432 5438 5444 5450 5457 5461 5466 5470 5479 5488 5496 5508 5520 5527 5534 5539 5546 5557 5561 5565 5567 5571 5575 5579 5580 5584 5589 5590 5592 5592 5593
5295 5289 5284 5281 5280 5279 5279 5281 5286 5291 5299 5306 5314 5324 5337 5349 5363 5376 5388 5397 5406 5414 5422 5430 5435 5440 5445 5449 5455 5461 5465 5473 5484 5497 5508 5513 5522 5528 5532 5545 5550 5554 5557 5561 5565 5567 5569 5572 5575 5577 5579 5580 5581 5582
5302 5300 5296 5294 5294 5294 5297 5301 5304 5309 5314 5322 5330 5340 5351 5362 5371 5381 5390 5398 5406 5415 5421 5426 5432 5434 5439 5446 5451 5456 5463 5474 5484 5490 5498 5506 5516 5523 5531 5537 5541 5544 5548 5553 5557 5561 5563 5564 5566 5568 5569 5571 5572 5573
5310 5310 5309 5309 5308 5311 5314 5318 5321 5326 5331 5337 5344 5352 5360 5370 5379 5387 5396 5403 5409 5413 5419 5424 5427 5430 5436 5442 5451 5459 5465 5472 5483 5485 5493 5502 5511 5517 5519 5524 5532 5538 5542 5547 5551 5553 5556 5558 5558 5559 5560 5562 5563 5563
5318 5319 5320 5321 5322 5324 5327 5330 5334 5339 5343 5349 5354 5360 5368 5376 5383 5391 5397 5402 5407 5410 5415 5419 5424 5430 5436 5445 5452 5457 5463 5469 5473 5479 5489 5496 5504 5508 5517 5524 5530 5533 5537 5541 5544 5546 5547 5549 5549 5550 5551 5552 5554 5554
5325 5327 5329 5331 5333 5335 5338 5341 5345 5350 5355 5361 5367 5372 5377 5384 5390 5395 5399 5402 5404 5409 5412 5419 5426 5431 5439 5446 5451 5457 5461 5464 5469 5479 5484 5491 5502 5508 5514 5519 5525 5528 5531 5534 5536 5537 5538 5539 5540 5542 5543 5543 5543 5544
5335 5337 5338 5340 5342 5345 5348 5351 5355 5359 5362 5368 5374 5380 5384 5390 5394 5397 5401 5404 5407 5412 5420 5426 5430 5433 5438 5444 5449 5457 5462 5467 5471 5475 5482 5492 5499 5504 5509 5514 5519 5522 5523 5526 5528 5529 5530 5532 5533 5533 5533 5533 5533 5532
5342 5344 5346 5349 5351 5354 5357 5360 5364 5368 5371 5375 5380 5385 5388 5393 5397 5400 5404 5408 5413 5418 5423 5426 5429 5434 5439 5445 5450 5454 5461 5466 5470 5474 5480 5488 5493 5499 5503 5506 5511 5513 5515 5517 5519 5520 5520 5521 5523 5524 5523 5523 5523 5521
5351 5352 5353 5355 5357 5360 5362 5366 5369 5373 5377 5381 5385 5389 5392 5397 5400 5403 5406 5413 5418 5424 5428 5429 5431 5436 5442 5443 5451 5452 5460 5465 5469 5474 5478 5482 5488 5493 5496 5499 5502 5505 5507 5509 5510 5511 5511 5512 5513 5514 5514 5513 5512 5511
5358 5359 5359 5360 5360 5362 5366 5370 5374 5378 5380 5384 5388 5391 5395 5398 5402 5404 5405 5414 5422 5427 5429 5432 5434 5437 5442 5447 5452 5457 5462 5465 5470 5473 5476 5480 5484 5487 5491 5494 5496 5498 5499 5501 5502 5503 5504 5505 5505 5505 5504 5503 5501 5500
5368 5368 5369 5369 5370 5370 5371 5374 5378 5381 5383 5386 5389 5393 5397 5401 5404 5407 5411 5418 5423 5427 5430 5434 5438 5441 5447 5451 5455 5458 5463 5466 5468 5471 5474 5477 5480 5483 5485 5487 5489 5491 5492 5494 5495 5496 5497 5497 5496 5495 5494 5493 5491 5489
5376 5376 5376 5377 5378 5380 5382 5383 5384 5386 5388 5391 5392 5396 5400 5403 5406 5410 5416 5421 5426 5429 5433 5438 5441 5445 5449 5453 5457 5461 5463 5465 5467 5469 5471 5473 5476 5478 5480 5482 5483 5485 5486 5487 5487 5487 5487 5487 5486 5485 5484 5482 5480 5478
5385 5384 5385 5386 5387 5388 5388 5389 5390 5392 5393 5396 5398 5399 5402 5406 5409 5414 5419 5425 5429 5433 5437 5439 5443 5447 5451 5455 5458 5459 5460 5462 5464 5466 5468 5469 5471 5473 5475 5476 5477 5478 5478 5479 5479 5479 5478 5477 5476 5475 5473 5471 5468 5466
5393 5394 5395 5395 5395 5396 5397 5398 5398 5399 5401 5401 5403 5405 5407 5411 5416 5420 5424 5428 5431 5435 5437 5442 5445 5448 5451 5453 5454 5456 5457 5459 5460 5462 5463 5465 5466 5468 5469 5469 5470 5470 5470 5470 5470 5469 5468 5467 5465 5464 5461 5459 5457 5454
5401 5402 5402 5403 5403 5404 5404 5405 5407 5408 5409 5409 5411 5414 5417 5420 5423 5425 5429 5431 5434 5436 5440 5442 5444 5446 5447 5448 5450 5450 5451 5453 5455 5456 5457 5459 5460 5461 5462 5462 5462 5462 5462 5461 5460 5459 5459 5457 5455 5453 5450 5447 5443 5439
5407 5408 5408 5409 5409 5411 5411 5412 5413 5414 5415 5417 5419 5420 5422 5425 5428 5430 5432 5434 5436 5438 5439 5442 5444 5444 5444 5445 5446 5447 5448 5449 5450 5451 5452 5453 5454 5454 5454 5454 5454 5453 5453 5452 5451 5450 5448 5445 5443 5440 5436 5432 5428 5423
5411 5412 5413 5414 5415 5416 5417 5417 5418 5419 5421 5422 5423 5425 5426 5428 5430 5432 5433 5433 5435 5436 5437 5438 5439 5440 5441 5442 5443 5443 5444 5444 5445 5445 5445 5446 5446 5446 5446 5445 5445 5444 5443 5441 5439 5437 5434 5431 5428 5425 5421 5417 5413 5407
5415 5415 5416 5417 5417 5418 5419 5419 5421 5422 5423 5424 5425 5426 5427 5428 5429 5430 5431 5432 5433 5434 5434 5435 5436 5436 5437 5437 5437 5438 5438 5438 5438 5438 5437 5437 5437 5437 5436 5435 5434 5432 5430 5428 5426 5423 5420 5417 5414 5410 5406 5402 5397 5392
5419 5419 5420 5419 5419 5420 5420 5421 5421 5422 5422 5423 5424 5425 5425 5426 5426 5427 5427 5428 5428 5428 5429 5429 5429 5429 5429 5429 5429 5429 5429 5429 5429 5429 5428 5427 5426 5425 5424 5422 5421 5419 5417 5415 5412 5409 5406 5403 5400 5395 5391 5386 5381 5375
5419 5419 5420 5419 5419 5420 5419 5420 5420 5420 5421 5421 5421 5421 5421 5422 5422 5422 5422 5422 5421 5421 5420 5420 5420 5420 5420 5419 5419 5419 5419 5418 5417 5417 5416 5415 5414 5412 5411 5409 5407 5406 5403 5401 5399 5396 5393 5389 5386 5381 5376 5371 5365 5360
5419 5419 5419 5418 5418 5418 5418 5417 5417 5417 5417 5417 5416 5416 5415 5415 5415 5415 5414 5413 5413 5412 5411 5411 5410 5409 5409 5408 5407 5407 5406 5406 5405 5405 5403 5402 5401 5400 5398 5397 5395 5393 5391 5389 5386 5383 5379 5375 5371 5366 5362 5356 5351 5346
5417 5416 5416 5416 5415 5415 5414 5413 5412 5411 5410 5409 5408 5407 5407 5406 5406 5404 5403 5402 5401 5400 5399 5398 5398 5397 5396 5395 5395 5394 5394 5393 5392 5392 5391 5390 5389 5387 5386 5384 5383 5381 5378 5376 5373 5369 5365 5361 5357 5353 5349 5344 5340 5335
5413 5412 5411 5410 5409 5408 5406 5406 5405 5403 5402 5401 5400 5398 5396 5394 5393 5391 5389 5388 5386 5384 5383 5382 5382 5381 5381 5380 5380 5380 5380 5380 5379 5379 5378 5377 5376 5375 5373 5371 5369 5367 5365 5362 5359 5356 5353 5349 5346 5342 5338 5334 5330 5325
5407 5406 5405 5404 5403 5402 5401 5400 5397 5395 5393 5390 5387 5384 5382 5379 5376 5374 5372 5370 5369 5369 5368 5367 5367 5367 5367 5367 5367 5367 5367 5367 5366 5366 5365 5364 5363 5362 5360 5359 5357 5355 5353 5350 5348 5345 5342 5339 5335 5332 5329 5325 5321 5316
5400 5399 5398 5396 5394 5392 5390 5388 5385 5382 5379 5376 5372 5369 5367 5365 5363 5361 5360 5359 5358 5357 5356 5356 5356 5355 5355 5355 5355 5355 5355 5355 5355 5354 5354 5353 5352 5351 5349 5348 5346 5344 5342 5339 5336 5334 5331 5329 5327 5324 5321 5317 5313 5309
5393 5391 5390 5387 5385 5383 5380 5377 5374 5371 5367 5365 5362 5360 5357 5355 5353 5351 5348 5346 5345 5344 5344 5344 5344 5344 5345 5345 5345 5345 5345 5345 5345 5344 5343 5343 5341 5340 5338 5337 5335 5333 5331 5329 5327 5325 5324 5322 5319 5316 5313 5309 5305 5301
5385 5384 5382 5380 5378 5375 5372 5370 5366 5363 5360 5357 5354 5351 5348 5345 5342 5340 5338 5336 5336 5335 5335 5335 5335 5335 5335 5335 5336 5336 5336 5335 5335 5334 5333 5332 5331 5330 5328 5327 5325 5324 5322 5321 5320 5319 5317 5314 5312 5309 5305 5302 5298 5294